EW0159 Weather Reports


Display with metric or nautical units.
time (UTC)temp
F
wind
direction
speed
MPH
gust
MPH
rain 1hr
in
rain 24hr
in
rain mn
in
humidity
%
barometer
mb
20260905193058 65 296 1.0 5.0 0.00 0.05 0.00 71 1016.7
20260905191557 66 327 2.0 5.0 0.00 0.05 0.00 71 1016.8
20260905190057 67 34 2.0 6.0 0.00 0.05 0.00 72 1017.0
20260905184554 65 223 0.0 7.0 0.00 0.05 0.00 72 1017.1
20260905183049 64 85 0.0 5.0 0.00 0.05 0.00 72 1017.2
20260905181549 63 345 0.0 3.0 0.00 0.05 0.00 76 1017.2
20260905180046 63 132 1.0 4.0 0.00 0.05 0.00 78 1017.3
20260905174544 61 205 2.0 7.0 0.00 0.05 0.00 79 1017.4
20260905173040 61 219 0.0 3.0 0.00 0.05 0.00 80 1017.4
20260905171554 60 245 2.0 4.0 0.00 0.05 0.00 79 1017.4
20260905170037 60 229 3.0 5.0 0.00 0.05 0.00 79 1017.4
20260905164542 60 217 0.0 2.0 0.00 0.05 0.00 75 1017.3
20260905163033 58 173 0.0 2.0 0.00 0.05 0.00 66 1017.4
20260905161524 57 173 0.0 1.0 0.00 0.05 0.00 61 1017.5
20260905160022 56 173 0.0 1.0 0.00 0.05 0.00 60 1017.5
20260905154520 55 225 0.0 1.0 0.00 0.05 0.00 60 1017.5
20260905153021 54 251 0.0 0.0 0.00 0.05 0.00 60 1017.5
20260905151516 54 251 0.0 0.0 0.00 0.05 0.00 61 1017.6
20260905150012 53 251 0.0 0.0 0.00 0.05 0.00 62 1017.5
20260905144512 52 251 0.0 0.0 0.00 0.05 0.00 63 1017.4
20260905143009 52 251 0.0 0.0 0.00 0.05 0.00 63 1017.3
20260905141508 52 251 0.0 0.0 0.00 0.05 0.00 63 1017.2
20260905140007 52 251 0.0 0.0 0.00 0.07 0.00 63 1017.2
20260905134512 52 251 0.0 0.0 0.00 0.07 0.00 63 1017.1
20260905133007 52 251 0.0 0.0 0.00 0.07 0.00 63 1017.1
20260905131508 52 251 0.0 0.0 0.00 0.07 0.00 63 1017.1
20260905130003 52 251 0.0 0.0 0.00 0.09 0.00 63 1017.2
20260905124503 52 251 0.0 0.0 0.00 0.09 0.00 63 1017.0
20260905123001 52 251 0.0 0.0 0.00 0.09 0.00 64 1017.0
20260905121604 52 251 0.0 0.0 0.00 0.09 0.00 64 1016.8
20260905120100 52 251 0.0 0.0 0.00 0.09 0.00 64 1016.9
20260905114608 52 251 0.0 0.0 0.00 0.09 0.00 64 1016.8
20260905113058 52 251 0.0 0.0 0.00 0.09 0.00 64 1016.8
20260905111626 52 251 0.0 0.0 0.00 0.09 0.00 64 1016.7
20260905110107 52 251 0.0 0.0 0.00 0.09 0.00 64 1016.7
20260905104616 52 316 0.0 0.0 0.00 0.09 0.00 64 1016.8
20260905103056 52 316 0.0 0.0 0.00 0.09 0.00 64 1016.9
20260905101556 52 316 0.0 0.0 0.00 0.09 0.00 64 1016.9
20260905100053 51 316 0.0 0.0 0.00 0.09 0.00 65 1017.0
20260905094702 52 316 0.0 0.0 0.00 0.09 0.00 65 1016.9
20260905093055 51 316 0.0 0.0 0.00 0.09 0.00 65 1016.9
20260905091554 51 316 0.0 0.0 0.00 0.09 0.00 66 1016.8
20260905090046 51 316 0.0 0.0 0.00 0.09 0.00 66 1016.6
20260905084557 51 316 0.0 0.0 0.00 0.09 0.00 66 1016.6
20260905083044 51 316 0.0 0.0 0.00 0.09 0.00 66 1016.5
20260905081542 51 316 0.0 0.0 0.00 0.09 0.00 67 1016.4
20260905080045 51 316 0.0 0.0 0.00 0.09 0.00 67 1016.3
20260905074539 51 316 0.0 0.0 0.00 0.09 0.00 68 1016.3
20260905073037 50 316 0.0 0.0 0.00 0.09 0.00 69 1016.2
20260905071542 50 316 0.0 0.0 0.00 0.09 0.00 69 1016.2
20260905070034 50 316 0.0 0.0 0.00 0.09 0.09 70 1016.2
20260905064531 50 316 0.0 0.0 0.00 0.09 0.09 71 1016.1
20260905063029 51 316 0.0 0.0 0.00 0.09 0.09 71 1015.9
20260905061540 51 316 0.0 0.0 0.00 0.09 0.09 72 1015.7
20260905060046 51 316 0.0 0.0 0.00 0.09 0.09 71 1015.8
20260905054529 51 316 0.0 0.0 0.00 0.09 0.09 72 1015.7
20260905053023 52 316 0.0 0.0 0.00 0.09 0.09 72 1015.7
20260905051532 52 316 0.0 0.0 0.00 0.09 0.09 73 1015.7
20260905050021 52 316 0.0 0.0 0.00 0.09 0.09 73 1015.8
20260905044520 53 316 0.0 0.0 0.00 0.09 0.09 73 1015.7
20260905043022 53 316 0.0 0.0 0.00 0.09 0.09 74 1015.6
20260905041518 53 316 0.0 0.0 0.00 0.09 0.09 75 1015.6
20260905040021 54 316 0.0 0.0 0.00 0.09 0.09 75 1015.5
20260905034515 54 316 0.0 0.0 0.00 0.09 0.09 76 1015.3
20260905033012 55 316 0.0 0.0 0.00 0.09 0.09 77 1015.1
20260905031516 56 316 0.0 0.0 0.00 0.09 0.09 78 1014.8
20260905030010 57 316 0.0 0.0 0.00 0.09 0.09 78 1014.7
20260905024511 57 316 0.0 0.0 0.00 0.09 0.09 79 1014.6
20260905023016 58 316 0.0 1.0 0.00 0.09 0.09 80 1014.7
20260905021507 59 316 0.0 1.0 0.00 0.09 0.09 80 1014.6
20260905020006 60 316 0.0 1.0 0.00 0.09 0.09 80 1014.6
20260905014507 60 239 0.0 2.0 0.00 0.09 0.09 80 1014.5
20260905013007 61 228 3.0 5.0 0.00 0.09 0.09 79 1014.3
20260905011504 60 316 1.0 4.0 0.00 0.09 0.09 80 1014.1
20260905010004 59 338 0.0 1.0 0.00 0.09 0.09 80 1014.1
20260905004507 59 326 0.0 2.0 0.00 0.09 0.09 79 1014.2
20260905003009 59 154 0.0 2.0 0.01 0.09 0.09 79 1014.3
20260905001503 60 198 3.0 6.0 0.01 0.09 0.09 75 1014.5
20260905000100 61 248 0.0 2.0 0.01 0.10 0.09 76 1014.0
20260904234559 60 5 0.0 4.0 0.03 0.10 0.09 79 1014.0
20260904233058 60 355 0.0 3.0 0.02 0.09 0.08 79 1014.0
20260904231556 61 347 0.0 2.0 0.02 0.09 0.08 80 1013.7
20260904230107 62 290 0.0 4.0 0.02 0.09 0.08 80 1013.6
20260904224603 63 283 0.0 2.0 0.01 0.07 0.06 79 1013.5
20260904223107 64 310 0.0 3.0 0.02 0.07 0.06 78 1013.4
20260904221606 63 323 0.0 3.0 0.02 0.07 0.06 79 1013.3
20260904220051 62 326 0.0 3.0 0.02 0.07 0.06 79 1013.3
20260904214552 63 186 2.0 9.0 0.01 0.06 0.05 76 1013.3
20260904213052 65 186 5.0 9.0 0.00 0.05 0.04 66 1013.1
20260904211549 66 151 5.0 9.0 0.00 0.05 0.04 65 1012.9
20260904210048 66 209 1.0 7.0 0.00 0.07 0.04 65 1012.8
20260904204545 64 200 2.0 5.0 0.00 0.07 0.04 69 1012.7
20260904203044 64 193 2.0 4.0 0.00 0.07 0.04 69 1012.7
20260904201545 64 102 1.0 3.0 0.00 0.07 0.04 71 1012.8
20260904200101 64 259 1.0 5.0 0.00 0.07 0.04 69 1012.9
20260904194545 64 93 0.0 6.0 0.00 0.07 0.04 72 1013.1